{"data":{"norad_id":57221,"epoch":"2026-05-25T04:00:03.998880Z","epoch_age_seconds":70932,"freshness":"FRESH","line1":"1 57221U 23094D   26145.16671295  .01453613  00000+0  23007-1 0  9995","line2":"2 57221  43.0005 320.8110 0002296 266.9342 248.1463 15.49911665  5894","mean_motion":15.49911665,"eccentricity":0.0002296,"inclination_deg":43.0005,"raan_deg":320.811,"arg_perigee_deg":266.9342,"mean_anomaly_deg":248.1463,"bstar":0.023007,"rev_number":589,"period_min":92.908520693016,"perigee_km":415.4240825997,"apogee_km":418.54440227423,"semimajor_km":6795.121242437,"source":"CELESTRAK","updated_at":"2026-05-25T13:38:18.252056Z"}}